Radiation Dose at Monitoring Post of Fukushima Daini Nuclear Power Station
Date,Time,MP-1(microSv/h),MP-2(microSv/h),MP-3(microSv/h),MP-4(microSv/h),MP-5(microSv/h),MP-6(microSv/h),MP-7(microSv/h),Wind Direction,Wind Velocity(m/s),Rain
2024/06/14,00:00,0.150,0.132,0.216,0.202,0.209,0.117,0.077,north-northwest,0.7,No
2024/06/14,00:10,0.149,0.132,0.215,0.201,0.206,0.118,0.077,-,CALM,No
2024/06/14,00:20,0.149,0.133,0.216,0.200,0.209,0.118,0.077,-,CALM,No
2024/06/14,00:30,0.149,0.133,0.215,0.202,0.208,0.117,0.076,-,CALM,No
2024/06/14,00:40,0.150,0.133,0.216,0.201,0.208,0.118,0.077,north,0.8,No
2024/06/14,00:50,0.150,0.133,0.215,0.202,0.210,0.118,0.077,north-northeast,1.0,No
2024/06/14,01:00,0.149,0.133,0.216,0.200,0.207,0.118,0.077,north,1.3,No
2024/06/14,01:10,0.151,0.132,0.215,0.203,0.210,0.116,0.077,north-northwest,1.3,No
2024/06/14,01:20,0.149,0.133,0.216,0.201,0.207,0.117,0.077,north-northwest,1.3,No
2024/06/14,01:30,0.150,0.133,0.215,0.201,0.208,0.118,0.077,northwest,1.3,No
2024/06/14,01:40,0.149,0.133,0.217,0.201,0.208,0.118,0.077,northwest,1.4,No
2024/06/14,01:50,0.150,0.133,0.213,0.201,0.208,0.117,0.076,northwest,1.4,No
2024/06/14,02:00,0.149,0.133,0.215,0.201,0.208,0.117,0.076,northwest,1.5,No
2024/06/14,02:10,0.150,0.132,0.214,0.201,0.207,0.118,0.077,northwest,1.8,Yes
2024/06/14,02:20,0.149,0.133,0.215,0.202,0.209,0.117,0.076,northwest,2.6,No
2024/06/14,02:30,0.148,0.133,0.213,0.201,0.207,0.117,0.076,northwest,2.5,No
2024/06/14,02:40,0.150,0.133,0.216,0.201,0.208,0.117,0.077,northwest,2.0,No
2024/06/14,02:50,0.149,0.132,0.214,0.200,0.208,0.117,0.076,north-northwest,2.0,No
2024/06/14,03:00,0.149,0.133,0.216,0.202,0.207,0.116,0.076,north-northwest,2.0,No
2024/06/14,03:10,0.149,0.132,0.214,0.201,0.209,0.116,0.076,north-northwest,1.9,No
2024/06/14,03:20,0.150,0.133,0.215,0.200,0.206,0.117,0.076,northwest,1.4,No
2024/06/14,03:30,0.148,0.132,0.215,0.200,0.209,0.117,0.076,north,0.6,No
2024/06/14,03:40,0.149,0.132,0.215,0.202,0.208,0.117,0.076,-,CALM,No
2024/06/14,03:50,0.148,0.131,0.215,0.201,0.209,0.117,0.076,south,1.2,No
2024/06/14,04:00,0.149,0.133,0.216,0.202,0.210,0.118,0.076,south,1.1,No
2024/06/14,04:10,0.149,0.132,0.215,0.201,0.207,0.117,0.076,south-southwest,1.6,Yes
2024/06/14,04:20,0.149,0.133,0.216,0.201,0.210,0.117,0.076,south,1.9,No
2024/06/14,04:30,0.151,0.132,0.215,0.200,0.207,0.117,0.076,south,2.1,No
2024/06/14,04:40,0.149,0.132,0.215,0.201,0.209,0.118,0.077,south,1.7,No
2024/06/14,04:50,0.149,0.132,0.214,0.201,0.207,0.117,0.077,south,1.6,No
2024/06/14,05:00,0.149,0.133,0.216,0.201,0.209,0.117,0.077,south-southwest,1.1,No
2024/06/14,05:10,0.151,0.132,0.213,0.201,0.209,0.116,0.077,southwest,0.8,No
2024/06/14,05:20,0.148,0.132,0.216,0.200,0.206,0.117,0.077,west,0.9,No
2024/06/14,05:30,0.151,0.132,0.214,0.202,0.209,0.117,0.076,northwest,0.9,No
2024/06/14,05:40,0.148,0.133,0.216,0.200,0.206,0.116,0.077,northwest,0.7,No
2024/06/14,05:50,0.151,0.132,0.214,0.201,0.207,0.117,0.076,-,CALM,Yes
2024/06/14,06:00,0.149,0.131,0.216,0.199,0.209,0.117,0.076,west-southwest,0.6,No
2024/06/14,06:10,0.149,0.132,0.213,0.201,0.207,0.117,0.077,west-southwest,0.6,No
2024/06/14,06:20,0.150,0.133,0.216,0.201,0.206,0.116,0.076,west-northwest,0.9,Yes
2024/06/14,06:30,0.149,0.134,0.214,0.201,0.207,0.118,0.077,-,CALM,No
2024/06/14,06:40,0.148,0.132,0.215,0.203,0.210,0.117,0.076,north-northwest,0.9,No
2024/06/14,06:50,0.148,0.131,0.217,0.200,0.208,0.118,0.076,north-northwest,1.3,No
2024/06/14,07:00,0.150,0.132,0.214,0.201,0.207,0.118,0.076,north-northwest,1.2,No
2024/06/14,07:10,0.151,0.134,0.212,0.203,0.209,0.117,0.076,north,2.0,No
2024/06/14,07:20,0.149,0.133,0.211,0.200,0.209,0.118,0.076,north-northwest,1.4,No
2024/06/14,07:30,0.148,0.132,0.212,0.199,0.208,0.116,0.076,-,CALM,Yes
2024/06/14,07:40,0.148,0.132,0.213,0.198,0.207,0.117,0.077,-,CALM,No
2024/06/14,07:50,0.147,0.131,0.212,0.199,0.206,0.118,0.076,-,CALM,No
2024/06/14,08:00,0.148,0.131,0.212,0.199,0.205,0.118,0.076,southeast,0.6,Yes
2024/06/14,08:10,0.147,0.132,0.215,0.198,0.206,0.117,0.076,southeast,1.0,No
2024/06/14,08:20,0.147,0.131,0.214,0.199,0.206,0.117,0.076,southeast,1.3,No
2024/06/14,08:30,0.148,0.132,0.214,0.199,0.207,0.117,0.076,south-southeast,1.4,No
2024/06/14,08:40,0.148,0.132,0.215,0.199,0.206,0.117,0.075,southeast,1.5,No
2024/06/14,08:50,0.149,0.132,0.214,0.200,0.206,0.116,0.076,south,1.3,No
2024/06/14,09:00,0.149,0.132,0.214,0.200,0.206,0.118,0.076,southeast,1.9,No
2024/06/14,09:10,0.149,0.132,0.214,0.200,0.206,0.117,0.076,east,1.9,No
2024/06/14,09:20,0.149,0.132,0.214,0.201,0.208,0.117,0.075,east,1.8,No
2024/06/14,09:30,0.149,0.131,0.215,0.201,0.207,0.116,0.076,east,1.4,No
2024/06/14,09:40,0.148,0.132,0.214,0.200,0.206,0.116,0.076,southeast,0.6,No
2024/06/14,09:50,0.148,0.132,0.214,0.200,0.207,0.117,0.076,east-northeast,1.1,No
2024/06/14,10:00,0.148,0.132,0.215,0.200,0.207,0.117,0.076,east-northeast,1.3,No
2024/06/14,10:10,0.148,0.131,0.214,0.201,0.207,0.118,0.076,east-northeast,2.5,No
2024/06/14,10:20,0.148,0.132,0.215,0.200,0.207,0.117,0.076,northeast,3.0,No
2024/06/14,10:30,0.148,0.131,0.214,0.200,0.206,0.116,0.075,east-northeast,2.2,No
2024/06/14,10:40,0.148,0.131,0.214,0.199,0.207,0.116,0.074,east-northeast,2.3,No
2024/06/14,10:50,0.148,0.131,0.214,0.200,0.207,0.116,0.075,east-northeast,2.5,No
2024/06/14,11:00,0.148,0.131,0.214,0.199,0.206,0.116,0.075,east,2.4,No
2024/06/14,11:10,0.147,0.132,0.214,0.200,0.206,0.116,0.075,east-northeast,2.5,No
2024/06/14,11:20,0.148,0.132,0.215,0.200,0.206,0.117,0.075,east,1.3,No
2024/06/14,11:30,0.148,0.132,0.214,0.201,0.208,0.116,0.074,east,2.0,No
2024/06/14,11:40,0.148,0.132,0.213,0.200,0.207,0.117,0.075,east,1.9,No
2024/06/14,11:50,0.148,0.132,0.214,0.201,0.207,0.116,0.075,east-southeast,1.8,No
2024/06/14,12:00,0.148,0.131,0.214,0.200,0.207,0.116,0.075,east-southeast,2.3,No
2024/06/14,12:10,0.148,0.131,0.213,0.201,0.207,0.117,0.074,east-southeast,2.6,No
2024/06/14,12:20,0.148,0.132,0.213,0.200,0.208,0.116,0.075,east-southeast,2.8,No
2024/06/14,12:30,0.148,0.131,0.214,0.199,0.207,0.116,0.075,east-southeast,2.3,No
2024/06/14,12:40,0.148,0.131,0.213,0.200,0.208,0.116,0.076,east-southeast,2.1,No
2024/06/14,12:50,0.149,0.132,0.214,0.201,0.207,0.116,0.075,east-southeast,2.6,No
2024/06/14,13:00,0.149,0.132,0.215,0.199,0.207,0.117,0.075,east-southeast,2.3,No
2024/06/14,13:10,0.148,0.132,0.214,0.199,0.207,0.116,0.075,east-southeast,2.7,No
2024/06/14,13:20,0.148,0.132,0.213,0.200,0.207,0.117,0.075,east-southeast,2.7,No
2024/06/14,13:30,0.148,0.132,0.214,0.201,0.206,0.117,0.075,east-southeast,3.0,No
2024/06/14,13:40,0.149,0.133,0.214,0.200,0.207,0.116,0.076,east-southeast,3.6,No
2024/06/14,13:50,0.148,0.132,0.214,0.202,0.207,0.117,0.075,southeast,3.0,No
2024/06/14,14:00,0.148,0.132,0.215,0.201,0.208,0.117,0.075,east-southeast,3.1,No
2024/06/14,14:10,0.147,0.133,0.216,0.201,0.208,0.117,0.075,southeast,3.4,No
2024/06/14,14:20,0.148,0.132,0.214,0.202,0.208,0.117,0.075,southeast,3.1,No
2024/06/14,14:30,0.148,0.132,0.214,0.200,0.208,0.117,0.075,southeast,3.4,No
2024/06/14,14:40,0.148,0.132,0.214,0.200,0.207,0.117,0.074,southeast,3.3,No
2024/06/14,14:50,0.148,0.132,0.214,0.200,0.208,0.117,0.075,east-southeast,2.9,No
2024/06/14,15:00,0.148,0.133,0.214,0.201,0.206,0.115,0.076,southeast,2.6,No
2024/06/14,15:10,0.148,0.132,0.214,0.201,0.207,0.117,0.074,southeast,2.2,No
2024/06/14,15:20,0.148,0.131,0.214,0.201,0.206,0.117,0.075,east-southeast,2.9,No
2024/06/14,15:30,0.148,0.131,0.215,0.201,0.206,0.117,0.075,southeast,3.1,No
2024/06/14,15:40,0.148,0.132,0.214,0.199,0.207,0.117,0.075,south-southeast,3.1,No
2024/06/14,15:50,0.148,0.131,0.213,0.200,0.206,0.118,0.075,south-southeast,2.5,No
2024/06/14,16:00,0.148,0.131,0.213,0.200,0.207,0.116,0.076,south-southeast,3.3,No
2024/06/14,16:10,0.148,0.130,0.213,0.200,0.207,0.117,0.076,south,3.7,No
2024/06/14,16:20,0.148,0.132,0.215,0.202,0.207,0.116,0.076,south-southeast,3.5,No
2024/06/14,16:30,0.147,0.132,0.217,0.203,0.208,0.117,0.075,south,3.8,No
2024/06/14,16:40,0.147,0.132,0.216,0.202,0.207,0.117,0.076,south-southeast,4.8,No
2024/06/14,16:50,0.148,0.131,0.213,0.200,0.206,0.116,0.076,south,4.8,No
2024/06/14,17:00,0.147,0.134,0.216,0.202,0.206,0.116,0.076,south-southeast,5.0,No
2024/06/14,17:10,0.148,0.132,0.216,0.203,0.206,0.117,0.075,south-southeast,5.4,No
2024/06/14,17:20,0.150,0.131,0.214,0.201,0.206,0.117,0.076,south-southeast,4.8,No
2024/06/14,17:30,0.150,0.133,0.215,0.201,0.205,0.117,0.075,south,4.5,No
2024/06/14,17:40,0.149,0.133,0.218,0.203,0.205,0.117,0.075,south,3.9,No
2024/06/14,17:50,0.147,0.133,0.215,0.201,0.206,0.117,0.076,south-southeast,4.5,No
2024/06/14,18:00,0.148,0.132,0.214,0.200,0.210,0.117,0.075,south-southeast,4.9,No
2024/06/14,18:10,0.150,0.134,0.215,0.203,0.208,0.116,0.076,south,5.7,No
2024/06/14,18:20,0.150,0.133,0.215,0.202,0.207,0.117,0.076,south,5.8,No
2024/06/14,18:30,0.148,0.131,0.213,0.201,0.210,0.117,0.075,south,6.3,No
2024/06/14,18:40,0.149,0.132,0.217,0.202,0.209,0.116,0.076,south,5.9,No
2024/06/14,18:50,0.150,0.131,0.215,0.202,0.207,0.117,0.076,south,5.3,No
2024/06/14,19:00,0.147,0.132,0.215,0.201,0.210,0.117,0.076,south,5.8,No
2024/06/14,19:10,0.150,0.132,0.216,0.204,0.209,0.116,0.076,south,5.4,No
2024/06/14,19:20,0.149,0.131,0.215,0.201,0.206,0.117,0.076,south,5.1,No
2024/06/14,19:30,0.148,0.132,0.217,0.202,0.209,0.117,0.075,south,4.2,No
2024/06/14,19:40,0.149,0.133,0.217,0.203,0.208,0.116,0.077,south,4.5,No
2024/06/14,19:50,0.149,0.132,0.215,0.201,0.206,0.116,0.076,south,4.6,No
2024/06/14,20:00,0.148,0.133,0.217,0.202,0.209,0.117,0.075,south,5.3,No
2024/06/14,20:10,0.149,0.131,0.215,0.203,0.209,0.117,0.077,south,5.9,No
2024/06/14,20:20,0.148,0.132,0.215,0.200,0.207,0.116,0.076,south,6.0,No
2024/06/14,20:30,0.148,0.133,0.217,0.202,0.210,0.117,0.076,south,5.4,No
2024/06/14,20:40,0.149,0.132,0.213,0.202,0.208,0.117,0.076,south,4.6,No
2024/06/14,20:50,0.148,0.133,0.216,0.201,0.207,0.116,0.075,south,4.3,No
2024/06/14,21:00,0.148,0.132,0.216,0.203,0.210,0.116,0.076,south,3.3,No
2024/06/14,21:10,0.150,0.131,0.215,0.202,0.207,0.117,0.076,south-southeast,2.5,No
2024/06/14,21:20,0.148,0.132,0.217,0.201,0.207,0.117,0.076,south,3.0,No
2024/06/14,21:30,0.150,0.132,0.215,0.202,0.209,0.117,0.075,south,3.1,No
2024/06/14,21:40,0.149,0.133,0.217,0.201,0.207,0.117,0.076,south-southeast,2.5,No
2024/06/14,21:50,0.148,0.131,0.216,0.201,0.207,0.117,0.076,south,2.2,No
2024/06/14,22:00,0.150,0.132,0.215,0.203,0.208,0.117,0.076,south,1.7,No
2024/06/14,22:10,0.150,0.132,0.218,0.202,0.207,0.118,0.077,south,2.0,No
2024/06/14,22:20,0.148,0.133,0.216,0.203,0.209,0.117,0.076,south,1.1,No
2024/06/14,22:30,0.151,0.134,0.217,0.201,0.209,0.117,0.076,south,0.8,No
2024/06/14,22:40,0.149,0.132,0.217,0.203,0.206,0.118,0.076,-,CALM,No
2024/06/14,22:50,0.150,0.134,0.217,0.204,0.211,0.117,0.077,-,CALM,No
2024/06/14,23:00,0.151,0.133,0.218,0.202,0.209,0.118,0.077,-,CALM,No
2024/06/14,23:10,0.150,0.134,0.217,0.204,0.209,0.118,0.077,north-northwest,0.6,No
2024/06/14,23:20,0.152,0.134,0.219,0.201,0.211,0.118,0.077,north-northwest,2.5,No
2024/06/14,23:30,0.149,0.133,0.217,0.204,0.209,0.117,0.076,north-northwest,3.0,No
2024/06/14,23:40,0.150,0.134,0.217,0.203,0.211,0.118,0.077,north-northwest,3.4,No
2024/06/14,23:50,0.150,0.133,0.216,0.203,0.208,0.119,0.077,north-northwest,2.9,No
